Address 0xeb71432c188d5cba9644fca586911b54264b8fa5 4

 
Txn Hash
Block
From
To
Value [Txn Fee]
0xd82af93b3b78105f5f08d13c25a64633e6696eec19b3bf9dc89ba4cd1ceb0ad922859972021-10-16 23:18:001 hr 34 mins ago0xeb71432c188d5cba9644fca586911b54264b8fa5OUT 0xa906f338cb21815cbc4bc87ace9e68c87ef8d8f10 ETH0.000798791864 ETH
0x109355bc8a14e163040849035122e51b34ec516219eab3ee6cf9203436960a0422823792021-10-16 19:53:564 hrs 58 mins ago0xeb71432c188d5cba9644fca586911b54264b8fa5OUT 0xabbc5f99639c9b6bcb58544ddf04efa6802f40640 ETH0.000868568805 ETH
0x43588126692756b4b25e43db5a1c9d557e2f8af32e3a272b0512e3002fbd5e1c22823422021-10-16 19:52:265 hrs ago0xeb71432c188d5cba9644fca586911b54264b8fa5OUT 0xabbc5f99639c9b6bcb58544ddf04efa6802f40640 ETH0.002000840274 ETH
0x69faa6d1a01f84c44c9a53623e38b242f90c79b8e375cd65afa74cd45324a90022823332021-10-16 19:52:125 hrs ago0xeb71432c188d5cba9644fca586911b54264b8fa5OUT 0xabbc5f99639c9b6bcb58544ddf04efa6802f40640 ETH0.001046595575 ETH
0xc2976da1c0be4f14e472b44f5711e08ab0b6a308be9740686da4e57ac426b3b022823082021-10-16 19:50:035 hrs 2 mins ago0xeb71432c188d5cba9644fca586911b54264b8fa5OUT 0xabbc5f99639c9b6bcb58544ddf04efa6802f40640 ETH0.001052953806 ETH
0x8288f397affa40fdb70575c6ec4be9333ac1ade8acd88d4d60779148d071474822670602021-10-16 6:27:4618 hrs 25 mins ago0xeb71432c188d5cba9644fca586911b54264b8fa5OUT 0xabbc5f99639c9b6bcb58544ddf04efa6802f40640 ETH0.002253765079 ETH
0x1db9f9bafd22bae8cb3c5a9cf831c752aaa024e114543cab8bd29ef0274ad61f22670422021-10-16 6:26:4518 hrs 26 mins ago0xeb71432c188d5cba9644fca586911b54264b8fa5OUT 0xabbc5f99639c9b6bcb58544ddf04efa6802f40640 ETH0.001179329774 ETH
0x6b75da81396f87c49fd4fe869537e0784bc647443a9ade68a1620ac04636286822669942021-10-16 6:24:2118 hrs 28 mins ago0xeb71432c188d5cba9644fca586911b54264b8fa5OUT 0xabbc5f99639c9b6bcb58544ddf04efa6802f40640 ETH0.002253659806 ETH
0x823e79e13986fc85dbe56603d50e703c52c9a142f6e809c0c0d6f8d70c2b4b0022669802021-10-16 6:23:3818 hrs 29 mins ago0xeb71432c188d5cba9644fca586911b54264b8fa5OUT 0xabbc5f99639c9b6bcb58544ddf04efa6802f40640 ETH0.001181533207 ETH
0x75ed3d6937bcc5e4b8581206d44a87225a3d4b1e88e18f7a410be8142086daca22594862021-10-15 21:42:121 day 3 hrs ago0xeb71432c188d5cba9644fca586911b54264b8fa5OUT 0xa906f338cb21815cbc4bc87ace9e68c87ef8d8f10 ETH0.000975880027 ETH
0xe7a7d75b17377b94549459bd14c61a0e3825eec78ae8b36e019f8f6e7e46f38522490592021-10-15 13:50:151 day 11 hrs ago0xeb71432c188d5cba9644fca586911b54264b8fa5OUT 0xabbc5f99639c9b6bcb58544ddf04efa6802f40640 ETH0.002270123611 ETH
0x04461988e28c128b60c52d3a05c31984acfe2b0fb8ff9bd8d7ac4071079660fd22490382021-10-15 13:48:541 day 11 hrs ago0xeb71432c188d5cba9644fca586911b54264b8fa5OUT 0xabbc5f99639c9b6bcb58544ddf04efa6802f40640 ETH0.002271693251 ETH
0xc6e4a7b7bd145b1d91fd0141589bef92d6f31df7bea500bee0316e12633c245e22344842021-10-15 4:36:161 day 20 hrs ago0xeb71432c188d5cba9644fca586911b54264b8fa5OUT 0xabbc5f99639c9b6bcb58544ddf04efa6802f40640 ETH0.002223871121 ETH
0xe9af71c6015aaad307dbfe7a3c5ac3f620aed72fdf245e8d41952003eafa992022258262021-10-14 20:33:232 days 4 hrs ago0xeb71432c188d5cba9644fca586911b54264b8fa5OUT 0xabbc5f99639c9b6bcb58544ddf04efa6802f40640.1 ETH0.002142689834 ETH
0xf647bb5472c659245160569446ac31b6a87479a2095b78b809116fce5f3014a822257672021-10-14 20:29:252 days 4 hrs ago0xeb71432c188d5cba9644fca586911b54264b8fa5OUT 0xabbc5f99639c9b6bcb58544ddf04efa6802f40640 ETH0.002167214311 ETH
0x7c55cee3e9e22619685313269838e3bf2c3bfc5e1c9654087569aafe031741bc22257392021-10-14 20:28:512 days 4 hrs ago0xeb71432c188d5cba9644fca586911b54264b8fa5OUT 0xabbc5f99639c9b6bcb58544ddf04efa6802f40640 ETH0.00216582997 ETH
0x6a6fd93a3c8e34373c222aefbb4e6330d8627f02b315a4458c98bbae1946c6e222244772021-10-14 19:26:282 days 5 hrs ago0xeb71432c188d5cba9644fca586911b54264b8fa5OUT 0xabbc5f99639c9b6bcb58544ddf04efa6802f40640 ETH0.001136861722 ETH
0x51495ac8c385b15953c9381e0382872056c2f54bb723c6eee073f4d409bd2d2b22243932021-10-14 19:21:522 days 5 hrs ago0xeb71432c188d5cba9644fca586911b54264b8fa5OUT 0xabbc5f99639c9b6bcb58544ddf04efa6802f40640 ETH0.002167200287 ETH
0x12e7b59742fa6b1b8eb6de710d8df77adb06cf2aec0b95d42504208b43a9030222239992021-10-14 19:08:472 days 5 hrs ago0xeb71432c188d5cba9644fca586911b54264b8fa5OUT 0xabbc5f99639c9b6bcb58544ddf04efa6802f40640 ETH0.001135943169 ETH
0x10c2dbb7892b5059d455f7677fbbaeb7223b12042a0c7c605ae8e5fc6f8ff79322239962021-10-14 19:06:522 days 5 hrs ago0xeb71432c188d5cba9644fca586911b54264b8fa5OUT 0xabbc5f99639c9b6bcb58544ddf04efa6802f40640 ETH0.000937163983 ETH
0x1af162793aac9094c3f001014b434e27925ff9258989cbe5b3c560269d8c49cc22052912021-10-14 5:27:432 days 19 hrs ago0xeb71432c188d5cba9644fca586911b54264b8fa5OUT 0xabbc5f99639c9b6bcb58544ddf04efa6802f40640.1 ETH0.002000861003 ETH
0xadd9f1fa47deddef8c9e5b44ee718153a5f412d5f29b2bf73b36508a667e64e122052282021-10-14 5:22:152 days 19 hrs ago0xeb71432c188d5cba9644fca586911b54264b8fa5OUT 0xabbc5f99639c9b6bcb58544ddf04efa6802f40640 ETH0.002030311821 ETH
0x3c7bb89d006081da329ffbdcd3ea125f7b26f397149d858cd9c6cb2caee78a3922052012021-10-14 5:21:482 days 19 hrs ago0xeb71432c188d5cba9644fca586911b54264b8fa5OUT 0xabbc5f99639c9b6bcb58544ddf04efa6802f40640 ETH0.000877473691 ETH
0xceb1614afcc845d250bdeef62a804bc98662e16501ca848ba02c46d795210f9f21993792021-10-14 0:01:223 days 51 mins ago0xeb71432c188d5cba9644fca586911b54264b8fa5OUT0x000000000000000000000000000000000000006e0.15 ETH0 ETH
0x4d292bb46678f44018a2a19b45202598928a9a5bbcc54acdc4ade35d9e80182621992772021-10-13 23:52:383 days 1 hr ago0xeb71432c188d5cba9644fca586911b54264b8fa5OUT 0xabbc5f99639c9b6bcb58544ddf04efa6802f40640 ETH0.00195848863 ETH
[ Download CSV Export 
Parent Txn Hash Block From To Value
Loading

Contract Name:
0 ETH

Compiler Version
0

Optimization Enabled:
0 ETH

Other Settings:
-NA-
Block Transaction Gas Used Reward
Age Block Fee Address BC Fee Address Voting Power Jailed Incoming
Block Uncle Number Difficulty Gas Used Reward
Loading
Loading
Make sure to use the "Vote Down" button for any spammy posts, and the "Vote Up" for interesting conversations.